Probability
3 2 4 7 8 6 6 7 7 7 7 4 1 0 0 0 0 0 2 7 12 14 15 15 14 12 9 6 4 2 1 1 1 2 2 1 0 0 0 0 0 0 0
5 3 3 7 9 7 6 5 4 4 4 2 1 0 0 0 0 0 1 4 7 12 17 19 17 13 10 6 3 2 2 3 3 2 1 0 0 0 0 0 0 0 0
7 5 4 7 9 8 6 3 1 1 2 1 0 0 0 0 0 0 1 1 2 7 16 22 21 16 11 6 3 2 4 5 4 3 1 1 1 0 0 0 0 0 0
7 8 8 7 8 9 8 5 2 2 2 1 0 0 0 0 0 0 0 1 1 4 11 19 20 16 10 6 4 4 6 6 5 4 3 2 2 1 1 0 0 0 0
8 10 10 9 9 10 10 8 5 5 4 3 1 0 0 0 0 0 0 1 1 2 5 10 13 11 8 7 7 8 9 8 7 5 2 2 2 2 1 1 1 1 0
8 8 9 10 11 11 11 10 8 7 6 4 2 1 0 0 0 0 0 1 1 1 1 4 6 7 6 7 9 11 10 10 9 6 3 1 1 1 2 2 2 1 0
7 7 8 9 11 11 11 10 8 7 6 4 3 1 0 0 0 0 0 0 0 0 0 1 3 3 4 6 9 8 8 10 10 7 4 1 1 2 2 1 1 0 0
9 9 8 9 9 10 10 9 8 7 6 5 4 2 1 0 0 0 0 0 0 0 1 1 1 1 2 4 5 5 6 8 9 6 3 2 2 2 1 0 0 0 0
10 9 8 8 9 9 9 9 8 7 7 6 4 3 1 0 0 0 0 0 0 0 1 1 0 0 1 2 2 3 3 5 5 4 3 2 2 1 0 0 0 0 0
8 7 5 6 8 8 7 7 7 8 8 6 4 3 2 1 0 0 0 0 0 0 1 1 0 0 0 0 0 1 1 1 2 3 3 2 1 0 0 0 0 0 0
7 6 4 4 5 5 5 6 6 7 8 7 5 4 3 2 1 0 0 0 0 0 0 0 0 0 0 0 0 0 0 0 0 1 3 2 0 0 0 0 0 0 0
5 4 3 3 3 3 4 4 5 6 7 7 6 4 3 2 1 0 0 0 0 0 0 0 0 0 0 0 0 0 0 0 0 0 1 1 0 0 0 0 0 0 0
2 1 1 1 1 1 2 3 3 4 5 6 5 3 2 1 1 0 0 0 0 0 0 0 0 0 0 0 0 0 0 0 0 0 0 0 0 0 0 0 0 0 0
0 0 0 0 0 0 1 2 2 2 3 4 3 1 1 0 0 0 0 0 0 0 0 0 0 0 0 0 0 0 0 0 0 0 0 0 0 0 0 0 0 0 0
0 0 0 0 0 0 0 1 1 1 2 2 1 0 0 0 0 0 0 0 0 0 0 0 0 0 0 0 0 0 0 0 0 0 0 0 0 0 0 0 0 0 0
0 0 0 0 0 0 0 0 0 0 1 1 0 0 0 0 0 0 0 0 0 0 0 0 0 0 0 0 0 0 0 0 0 0 0 0 0 0 0 0 0 0 0
0 0 0 0 0 0 0 0 0 0 0 0 0 0 0 0 0 0 0 0 0 0 0 0 0 0 0 0 0 0 0 0 0 0 0 0 0 0 0 0 0 0 0
0 0 0 0 0 0 0 0 0 0 0 0 0 0 0 0 0 0 0 0 0 0 0 0 0 0 0 0 0 0 0 0 0 0 0 0 0 0 0 0 0 0 0
0 0 0 0 0 0 0 0 0 0 0 0 0 0 0 0 0 0 0 0 0 0 0 0 0 0 0 0 0 0 0 0 0 0 0 0 0 0 0 0 0 0 0
0 0 0 0 0 0 0 0 0 0 0 0 0 0 0 0 0 0 0 0 0 0 0 0 0 0 0 0 0 0 0 0 0 0 0 0 0 0 0 0 0 0 0
0 0 0 0 0 0 0 0 0 0 0 0 0 0 0 0 0 0 0 0 0 0 0 0 0 0 0 0 0 0 0 0 0 0 0 0 0 0 0 0 0 0 0
0 0 0 0 0 0 0 0 0 0 0 0 0 0 0 0 0 0 0 0 0 0 0 0 0 0 0 0 0 0 0 0 0 0 0 0 0 0 0 0 0 0 0
0 0 0 0 0 0 0 0 0 0 0 0 0 0 0 0 0 0 0 0 0 0 0 0 0 0 0 0 0 0 0 0 0 0 0 0 0 0 0 0 0 0 0
0 0 0 0 0 0 0 0 0 0 0 0 0 0 0 0 0 0 0 0 0 0 0 0 0 0 0 0 0 0 0 0 0 0 0 0 0 0 0 0 0 0 0
0 0 0 0 0 0 0 0 0 0 0 0 0 0 0 0 0 0 0 0 0 0 0 0 0 0 0 0 0 0 0 0 0 0 0 0 0 0 0 0 0 0 0
0 0 0 0 0 0 0 0 0 0 0 0 0 0 0 0 0 0 0 0 0 0 0 0 0 0 0 0 0 0 0 0 0 0 0 0 0 0 0 0 0 0 0
Wind_Speed
2 2 2 2 2 1 2 3 3 3 3 3 3 4 3 4 3 2 2 8 11 11 12 12 14 14 13 13 12 11 11 11 10 9 8 8 7 7 7 6 6 6 6
2 2 2 2 2 2 2 2 3 3 3 2 3 3 2 2 3 3 2 3 7 9 11 12 12 13 14 13 12 12 11 11 10 10 9 8 8 7 7 7 7 6 7
2 2 2 2 3 3 3 2 2 2 2 2 2 2 2 2 2 3 2 2 3 6 8 9 9 10 12 13 12 12 11 11 10 10 10 9 8 8 8 7 7 7 8
1 1 1 1 1 1 2 2 2 2 2 1 1 1 1 2 2 2 2 2 2 3 5 8 9 9 10 11 12 12 12 11 11 11 10 10 9 9 8 8 8 8 8
1 1 1 1 0 1 1 2 1 1 1 1 1 1 1 2 2 3 3 3 3 3 3 5 8 9 10 10 10 11 12 12 12 11 11 10 10 9 9 9 10 10 10
2 1 1 1 0 0 1 1 1 1 2 2 1 0 0 1 1 2 2 2 2 3 3 3 3 5 8 9 9 10 10 11 11 11 11 10 10 10 10 10 11 11 11
3 2 2 1 1 0 1 1 1 2 2 2 1 0 1 1 0 0 1 2 2 2 2 2 2 2 3 6 8 9 10 11 11 11 11 10 10 11 11 11 11 11 11
4 3 3 2 2 1 0 0 1 1 1 1 2 1 1 1 1 1 1 1 2 2 2 2 2 2 2 1 4 8 9 10 11 11 11 11 11 11 12 12 12 11 11
4 3 3 2 2 1 0 1 1 2 1 1 2 2 2 3 1 1 2 2 2 3 2 3 3 3 4 2 2 5 9 10 12 12 12 12 12 12 12 12 12 12 11
4 4 3 3 3 2 2 1 0 1 2 1 1 1 2 3 3 1 1 2 3 4 3 2 3 4 4 3 4 6 9 10 11 13 13 13 13 13 12 12 12 11 11
5 5 4 4 3 2 2 2 1 0 1 1 1 1 1 1 2 2 2 1 3 3 4 3 3 4 4 4 4 8 11 11 11 12 13 12 12 12 11 11 11 10 10
4 5 5 4 4 3 3 2 1 1 0 1 1 1 1 2 2 2 3 3 3 2 4 4 4 4 4 4 6 11 12 12 11 11 12 12 12 11 11 10 10 10 9
3 5 4 4 3 3 3 2 2 2 1 1 0 0 1 1 1 2 4 4 3 2 3 3 4 3 4 4 5 10 10 11 10 10 10 11 11 10 10 9 9 8 8
2 4 4 4 5 4 4 3 2 2 2 2 2 1 1 1 2 2 3 5 4 3 3 2 2 3 3 3 5 6 6 9 8 9 10 9 9 9 9 8 8 7 7
3 4 4 5 5 5 4 4 3 3 3 3 3 3 3 2 2 2 3 3 5 5 3 2 2 2 2 3 3 3 3 5 6 7 7 7 7 8 8 7 7 7 6
4 5 5 5 5 5 5 4 4 3 4 4 3 4 4 3 3 3 3 3 3 4 4 2 2 2 3 3 4 3 2 4 3 4 5 6 6 7 6 6 6 5 4
5 5 5 5 6 6 6 6 6 6 6 5 5 5 5 4 4 3 3 4 4 4 7 4 3 3 3 3 2 2 1 1 1 2 3 4 5 5 5 5 4 4 4
5 5 6 6 7 7 6 6 7 7 6 7 6 6 6 5 6 4 4 5 5 4 7 8 4 2 2 2 2 1 1 2 2 3 4 5 5 4 4 4 4 4 4
6 7 7 7 7 7 7 7 7 7 7 7 7 7 6 6 6 5 5 5 5 6 5 7 5 2 2 1 2 1 0 0 2 3 5 6 6 6 6 6 6 6 6
7 7 7 7 7 7 7 7 7 8 8 8 8 8 7 6 5 5 5 5 6 7 6 6 5 3 2 2 2 1 1 1 1 1 2 3 4 6 7 8 8 8 8
7 7 7 8 7 7 6 7 7 8 8 8 8 8 8 10 10 7 6 5 6 6 5 5 4 3 2 2 1 0 1 1 1 0 0 1 1 2 4 6 9 10 10
6 7 8 7 8 7 9 11 8 7 7 8 7 7 8 9 11 12 12 9 7 7 6 4 3 3 2 1 1 1 2 2 1 1 1 2 1 3 3 4 8 11 11
6 7 7 7 7 9 12 12 11 7 7 7 6 6 7 8 8 7 10 12 10 9 7 5 5 3 3 2 2 2 1 1 1 2 1 1 1 2 3 4 9 10 11
5 5 6 6 7 9 11 12 12 9 8 7 7 6 7 6 6 7 8 8 7 6 5 4 4 3 3 2 2 3 2 1 1 1 1 0 2 2 3 3 6 8 9
5 4 4 6 7 7 10 10 9 6 6 7 7 7 7 6 8 10 8 7 7 5 5 6 4 3 3 3 3 3 3 3 2 2 1 1 1 2 3 3 4 6 8
4 4 5 5 6 6 8 9 7 4 5 4 5 6 8 8 8 9 6 6 5 3 3 4 4 4 3 2 2 3 3 2 1 2 2 1 1 1 3 3 3 3 3
Wind_Direction
181 183 192 190 199 198 204 213 210 211 219 218 219 224 224 220 203 198 229 205 204 200 192 191 191 187 184 181 178 175 176 175 172 167 163 160 156 150 146 142 140 139 135
166 174 184 180 191 194 203 205 206 215 226 218 223 217 210 205 199 181 195 208 204 200 198 194 193 191 186 184 182 180 178 177 173 166 163 159 155 152 149 143 139 134 131
155 153 168 186 207 201 197 202 210 202 220 218 220 209 192 196 188 176 174 189 204 199 196 190 189 192 192 188 186 185 181 176 171 168 166 162 157 152 147 142 136 131 129
137 142 160 197 213 197 195 201 201 196 205 196 206 226 199 179 185 180 173 173 183 196 199 193 189 190 191 188 187 185 182 177 172 168 162 157 150 145 142 137 133 128 123
81 115 165 220 208 191 209 216 190 176 180 175 189 209 203 189 188 183 179 176 176 176 177 194 187 192 193 188 184 185 183 177 169 164 160 155 148 144 140 136 131 125 120
44 49 41 1 44 122 236 205 167 172 176 171 176 200 234 210 181 177 182 173 174 172 165 180 181 191 189 185 182 182 178 171 164 161 158 153 147 142 136 131 127 123 119
34 36 21 4 14 196 225 201 181 170 183 153 132 120 358 23 41 137 161 155 158 156 138 143 159 161 172 166 170 174 172 165 159 155 150 145 141 139 137 133 128 124 120
34 33 28 16 3 6 21 113 158 175 201 170 159 161 206 353 13 33 57 119 123 106 106 113 107 110 113 126 145 156 159 154 151 147 146 142 141 140 138 133 129 125 121
39 40 33 22 9 22 341 283 193 167 198 232 193 176 178 200 158 33 44 71 85 84 86 88 90 94 98 98 117 141 144 141 138 136 137 135 134 133 133 131 129 127 122
31 29 30 27 19 14 359 329 286 208 183 218 251 233 201 157 158 155 52 51 66 67 67 78 75 73 77 84 96 122 128 127 131 131 130 131 130 129 128 127 126 125 122
25 26 26 24 18 6 1 359 3 352 182 192 216 231 206 174 150 155 158 113 67 53 56 57 68 66 65 73 83 99 104 108 116 122 124 126 127 127 126 127 128 126 122
17 21 22 20 15 7 2 357 6 24 39 172 231 222 188 178 175 162 154 134 105 61 52 52 61 60 59 68 89 97 97 100 106 113 118 122 122 121 121 118 117 116 115
18 10 14 15 9 1 358 4 25 23 21 70 48 289 264 218 148 141 133 128 115 91 61 48 48 57 64 59 84 96 99 98 98 103 107 110 112 115 115 115 116 117 117
17 7 13 17 17 13 13 19 32 30 36 46 41 28 42 55 94 123 137 138 125 96 74 72 51 61 70 66 77 80 96 103 104 106 104 106 109 111 114 114 112 113 112
25 22 21 20 18 19 18 26 38 34 40 42 42 45 55 60 71 81 106 132 137 135 122 113 94 77 87 81 77 69 82 101 111 114 114 117 119 119 119 117 119 120 118
25 27 26 25 26 27 26 34 39 40 51 45 51 58 55 55 64 71 89 81 94 121 122 111 101 114 113 115 110 83 87 103 122 131 132 130 128 128 133 134 134 137 142
34 34 34 35 38 36 34 42 46 49 55 52 53 62 59 58 67 63 68 76 81 98 114 102 83 99 98 101 92 83 110 115 124 165 164 156 155 156 158 160 163 169 173
40 44 45 42 43 42 39 46 51 49 55 57 53 58 57 64 64 65 74 81 85 86 115 120 108 103 109 121 116 117 153 171 169 193 197 195 194 194 194 195 198 204 210
46 47 50 46 41 39 41 46 55 56 55 56 55 58 56 67 67 67 73 79 86 92 95 114 112 99 92 106 99 89 104 48 199 195 205 215 218 219 222 224 225 228 233
53 51 49 44 39 40 40 46 57 58 57 54 52 54 54 61 69 75 80 83 94 96 98 102 103 89 80 73 89 89 50 341 276 189 198 203 218 230 235 236 236 238 239
57 54 52 43 35 39 41 52 59 64 61 57 51 51 54 61 65 72 89 91 97 98 99 99 97 82 71 77 97 129 107 18 342 334 130 248 221 239 243 241 240 239 239
53 55 51 49 44 40 48 60 66 62 62 62 57 51 54 53 60 68 78 84 100 114 116 109 104 108 109 125 130 118 114 81 336 308 124 277 208 244 246 233 237 237 238
59 56 50 50 47 37 50 64 67 67 63 58 55 53 58 52 56 67 69 69 69 85 105 122 121 131 141 172 133 99 102 132 215 253 120 297 303 274 266 252 243 243 244
62 59 50 47 50 40 51 69 72 65 61 55 53 59 65 52 56 74 74 64 57 57 75 93 121 135 147 154 141 146 156 103 353 339 116 223 298 282 289 287 269 255 252
61 56 52 48 50 34 47 73 80 69 62 50 46 49 61 62 64 78 78 70 56 38 53 75 98 109 114 125 128 90 68 68 21 322 341 128 299 309 306 297 291 277 263
71 64 54 43 47 40 45 67 83 80 68 51 39 37 48 66 68 75 82 83 70 31 27 34 38 31 35 32 76 123 135 119 114 305 291 112 312 4 328 302 296 298 285